Location: Rometta
(44.2000°N, 10.0500°E)
Time: 09:51:33
(UTC+00:00)

Cosmos 1818 - Pass Details

Date: 19 May 2021
Orbit: 771 x 802 km, 65.0° (Epoch: 15 June)

Event Time Altitude Azimuth Distance (km) Brightness Sun altitude
Rises 21:37:30 0° 314° (NW) 3,318 8.0 -22.0°
Reaches altitude 10° 21:40:23 10° 300° (WNW) 2,382 6.8 -22.2°
Maximum altitude 21:44:35 23° 250° (WSW) 1,647 5.2 -22.5°
Enters shadow 21:46:14 20° 225° (SW) 1,775 5.2 -22.6°
